Location: Brasstown Bald
(34.8693°N, 83.8103°W)
Time: 14:31:37
(UTC-04:00)

Amateur Radio Satellites - All Passes

Search period start: 23 October 2014 14:01
Search period end: 24 October 2014 14:01
Location: Brasstown Bald, 34.8693°N, 83.8103°W

Satellite Date Start Highest point End Downlink Frequencies (MHz)
Time Altitude Azimuth
Oscar 10/S400 23 Oct 14:06:51 14:27:01 45° 154° (SSE) 14:48:13 145.825 - 145.975 CW/USB, Beacon 145.810 USB
KITSAT 1 23 Oct 14:17:16 14:24:53 44° 305° (NW) 14:32:33 435.175 FM
Oscar 16 23 Oct 14:19:36 14:24:46 81° 76° (ENE) 14:29:57 437.025 USB, Beacon 2401.1428
AO-Echo 23 Oct 14:28:00 14:32:35 45° 72° (ENE) 14:37:19 ?
Uribyol 2 23 Oct 14:36:30 14:41:29 48° 72° (ENE) 14:46:29 436.500 FM
ITAMSAT 1 23 Oct 14:42:05 14:47:05 51° 73° (ENE) 14:52:08 435.822 SSB
Gurwin Techsat 1B 23 Oct 14:53:07 14:57:47 33° 70° (ENE) 15:02:28 435.225 FM
TMSAT-1 23 Oct 15:05:27 15:10:03 31° 69° (ENE) 15:14:40 436.925 FM
UOSAT-12 23 Oct 15:11:49 15:16:07 40° 114° (ESE) 15:20:30 437.025 FM, 437.400 FM
Oscar 19 23 Oct 15:14:12 15:18:40 30° 263° (W) 15:23:09 437.125 CW, 437.150 USB
Sapphire 23 Oct 15:15:44 15:20:55 47° 249° (WSW) 15:26:04 437.095 MHz 1200 baud AX-25 AFSK
SO-50 23 Oct 15:21:53 15:24:42 16° 313° (NW) 15:27:35 436.795 FM
AO-27 23 Oct 15:27:13 15:32:18 56° 259° (W) 15:37:27 436.795 MHz FM
ISS 23 Oct 15:37:30 15:38:18 11° 336° (NNW) 15:39:06 145.800 FM
PCSat 23 Oct 15:39:03 15:43:29 26° 253° (WSW) 15:47:54 145.825 MHz
JAS-1B 23 Oct 15:41:59 15:47:01 26° 263° (W) 15:51:44 435.800 - 435.900 CW/SSB
AO-Echo 23 Oct 16:08:36 16:11:35 16° 267° (W) 16:14:37 ?
Uosat F 23 Oct 16:12:52 16:16:22 19° 66° (ENE) 16:19:52 435.120 FM
Uribyol 2 23 Oct 16:17:47 16:21:09 17° 266° (W) 16:24:32 436.500 FM
KITSAT 1 23 Oct 16:22:25 16:22:42 10° 329° (NNW) 16:22:59 435.175 FM
AO-7 23 Oct 16:23:03 16:30:56 51° 66° (ENE) 16:38:50 29.400 - 29.500 MHz
ITAMSAT 1 23 Oct 16:23:40 16:26:49 16° 267° (W) 16:30:00 435.822 SSB
Gurwin Techsat 1B 23 Oct 16:33:19 16:37:42 26° 264° (W) 16:42:07 435.225 FM
TMSAT-1 23 Oct 16:45:27 16:49:54 27° 264° (W) 16:54:23 436.925 FM
UOSAT-12 23 Oct 16:52:54 16:56:24 21° 310° (NW) 16:59:57 437.025 FM, 437.400 FM
Saudisat 1A 23 Oct 16:56:00 16:59:09 19° 50° (NE) 17:02:17 436.775 MHz
JAS-2 23 Oct 17:12:33 17:16:46 21° 62° (ENE) 17:21:19 435.800 - 435.900 CW/SSB, 435.910 FM
Uosat F 23 Oct 17:50:04 17:54:47 42° 261° (W) 17:59:34 435.120 FM
OPAL 23 Oct 17:52:13 17:55:36 18° 96° (E) 17:58:57 ?
AO-7 23 Oct 18:16:47 18:23:52 31° 262° (W) 18:30:59 29.400 - 29.500 MHz
Hamsat 23 Oct 18:21:04 18:25:07 47° 75° (ENE) 18:29:09 145.90 MHz
Saudisat 1A 23 Oct 18:34:43 18:38:51 41° 246° (WSW) 18:42:59 436.775 MHz
JAS-2 23 Oct 18:55:39 19:01:12 53° 261° (W) 19:07:30 435.800 - 435.900 CW/SSB, 435.910 FM
SO-67 23 Oct 19:01:12 19:02:38 12° 69° (ENE) 19:04:03 435.3500 MHz FM
OPAL 23 Oct 19:29:58 19:34:37 41° 290° (WNW) 19:39:13 ?
STRAND 1 23 Oct 19:33:48 19:37:51 23° 95° (E) 19:41:52 ?
Hamsat 23 Oct 19:59:59 20:01:16 11° 268° (W) 20:02:32 145.90 MHz
KITSAT 1 23 Oct 20:21:12 20:24:03 12° 34° (NE) 20:26:52 435.175 FM
ISS 23 Oct 20:29:19 20:32:19 30° 36° (NE) 20:35:19 145.800 FM
HO-68 23 Oct 20:31:17 20:36:46 25° 62° (ENE) 20:42:15 435.675 MHz FM
SO-67 23 Oct 20:32:18 20:35:18 28° 263° (W) 20:38:19 435.3500 MHz FM
AO-40 23 Oct 20:45:06 23:15:15 23° 111° (ESE) 00:28:08 Beacon 2401.320
STRAND 1 23 Oct 21:12:24 21:17:03 35° 290° (WNW) 21:21:41 ?
UKube-1 23 Oct 21:26:23 21:28:51 15° 66° (ENE) 21:31:20 145.840 MHz, 145.915 MHz
FUNcube-1 23 Oct 22:03:35 22:06:09 15° 67° (ENE) 22:08:43 145.950 - 145.970 MHz USB
ISS 23 Oct 22:06:17 22:08:52 21° 231° (SW) 22:11:28 145.800 FM
Oscar 11 23 Oct 22:07:18 22:11:18 38° 73° (ENE) 22:15:18 145.825 FM, Beacon 2401.500 USB
RS-15 23 Oct 22:12:02 22:22:02 41° 108° (ESE) 22:31:52 29.354 - 29.394 USB, Beacon 29.352 USB
KITSAT 1 23 Oct 22:13:39 22:21:31 53° 57° (ENE) 22:29:19 435.175 FM
SO-50 23 Oct 22:14:38 22:18:25 22° 51° (NE) 22:22:14 436.795 FM
HO-68 23 Oct 22:16:55 22:23:56 58° 258° (WSW) 22:31:00 435.675 MHz FM
ZACube-1 23 Oct 22:52:34 22:57:03 53° 75° (ENE) 23:01:29 437.345 MHz
UKube-1 23 Oct 23:00:33 23:04:39 41° 261° (W) 23:08:47 145.840 MHz, 145.915 MHz
FUNcube-1 23 Oct 23:37:42 23:42:07 46° 261° (W) 23:46:30 145.950 - 145.970 MHz USB
Oscar 11 23 Oct 23:45:05 23:47:35 15° 267° (W) 23:50:05 145.825 FM, Beacon 2401.500 USB
UOSAT-12 23 Oct 23:45:26 23:48:27 17° 48° (NE) 23:51:27 437.025 FM, 437.400 FM
MaSat-1 23 Oct 23:52:54 23:56:15 22° 107° (ESE) 23:59:24 437.345 MHz
SO-50 23 Oct 23:54:34 23:59:07 41° 246° (WSW) 00:03:40 436.795 FM
KITSAT 1 24 Oct 00:09:43 00:16:28 30° 254° (WSW) 00:23:13 435.175 FM
RS-15 24 Oct 00:23:27 00:34:02 51° 307° (NW) 00:44:36 29.354 - 29.394 USB, Beacon 29.352 USB
ZACube-1 24 Oct 00:31:52 00:33:40 12° 268° (W) 00:35:28 437.345 MHz
UOSAT-12 24 Oct 01:24:21 01:28:56 54° 245° (WSW) 01:33:25 437.025 FM, 437.400 FM
MaSat-1 24 Oct 01:28:19 01:31:48 25° 298° (WNW) 01:35:02 437.345 MHz
JAS-1B 24 Oct 01:39:04 01:41:49 12° 93° (E) 01:44:42 435.800 - 435.900 CW/SSB
Oscar 19 24 Oct 01:51:53 01:53:47 12° 92° (E) 01:55:40 437.125 CW, 437.150 USB
Oscar 16 24 Oct 02:35:03 02:39:47 37° 98° (E) 02:44:28 437.025 USB, Beacon 2401.1428
AO-Echo 24 Oct 02:39:08 02:43:05 21° 94° (E) 02:47:00 ?
RS-15 24 Oct 02:44:01 02:49:55 16° 336° (NNW) 02:55:53 29.354 - 29.394 USB, Beacon 29.352 USB
Uribyol 2 24 Oct 02:53:23 02:57:24 22° 95° (E) 03:01:23 436.500 FM
ITAMSAT 1 24 Oct 02:59:02 03:03:12 24° 96° (E) 03:07:20 435.822 SSB
Gurwin Techsat 1B 24 Oct 03:13:36 03:16:57 17° 93° (E) 03:20:18 435.225 FM
TMSAT-1 24 Oct 03:25:39 03:28:49 16° 93° (E) 03:31:59 436.925 FM
JAS-1B 24 Oct 03:25:52 03:32:42 87° 104° (ESE) 03:40:55 435.800 - 435.900 CW/SSB
Oscar 19 24 Oct 03:28:26 03:33:30 64° 286° (WNW) 03:38:32 437.125 CW, 437.150 USB
AO-27 24 Oct 03:43:34 03:48:48 70° 102° (ESE) 03:53:59 436.795 MHz FM
Oscar 10/S400 24 Oct 03:51:18 04:16:53 11° 255° (WSW) 04:49:04 145.825 - 145.975 CW/USB, Beacon 145.810 USB
Sapphire 24 Oct 04:11:07 04:16:00 36° 109° (ESE) 04:20:56 437.095 MHz 1200 baud AX-25 AFSK
Oscar 16 24 Oct 04:14:58 04:18:51 22° 293° (WNW) 04:22:44 437.025 USB, Beacon 2401.1428
AO-Echo 24 Oct 04:16:57 04:21:55 41° 288° (WNW) 04:26:52 ?
AO-7 24 Oct 04:29:55 04:35:25 19° 94° (E) 04:40:52 29.400 - 29.500 MHz
Uribyol 2 24 Oct 04:32:10 04:36:55 37° 290° (WNW) 04:41:38 436.500 FM
PCSat 24 Oct 04:33:14 04:38:34 66° 113° (ESE) 04:43:56 145.825 MHz
ITAMSAT 1 24 Oct 04:38:00 04:42:42 35° 290° (WNW) 04:47:22 435.822 SSB
Gurwin Techsat 1B 24 Oct 04:52:01 04:57:09 50° 287° (WNW) 05:02:15 435.225 FM
OPAL 24 Oct 05:03:40 05:07:48 25° 66° (ENE) 05:11:54 ?
TMSAT-1 24 Oct 05:03:51 05:09:00 52° 287° (WNW) 05:14:07 436.925 FM
RS-15 24 Oct 05:04:51 05:09:25 13° 16° (NNE) 05:14:02 29.354 - 29.394 USB, Beacon 29.352 USB
JAS-1B 24 Oct 05:19:11 05:22:45 15° 297° (WNW) 05:26:34 435.800 - 435.900 CW/SSB
AO-27 24 Oct 05:25:25 05:27:39 13° 297° (WNW) 05:29:53 436.795 MHz FM
Sapphire 24 Oct 05:54:55 05:59:27 27° 305° (NW) 06:04:02 437.095 MHz 1200 baud AX-25 AFSK
Uosat F 24 Oct 06:00:47 06:05:51 78° 103° (ESE) 06:10:53 435.120 FM
JAS-2 24 Oct 06:07:54 06:14:39 31° 94° (E) 06:21:17 435.800 - 435.900 CW/SSB, 435.910 FM
Hamsat 24 Oct 06:12:38 06:13:31 11° 92° (E) 06:14:23 145.90 MHz
PCSat 24 Oct 06:19:02 06:22:26 17° 310° (NW) 06:25:52 145.825 MHz
AO-7 24 Oct 06:20:31 06:28:50 77° 289° (WNW) 06:37:08 29.400 - 29.500 MHz
OPAL 24 Oct 06:41:48 06:46:28 34° 260° (W) 06:51:06 ?
STRAND 1 24 Oct 06:46:41 06:50:45 24° 68° (ENE) 06:54:51 ?
RS-15 24 Oct 07:16:11 07:26:24 39° 48° (NE) 07:36:56 29.354 - 29.394 USB, Beacon 29.352 USB
Uosat F 24 Oct 07:42:46 07:43:55 11° 298° (WNW) 07:45:04 435.120 FM
Hamsat 24 Oct 07:45:38 07:49:41 50° 285° (WNW) 07:53:46 145.90 MHz
JAS-2 24 Oct 07:52:16 07:59:43 51° 290° (WNW) 08:07:09 435.800 - 435.900 CW/SSB, 435.910 FM
SO-67 24 Oct 07:58:52 08:01:33 21° 96° (E) 08:04:13 435.3500 MHz FM
PANSAT 24 Oct 08:10:10 08:12:52 18° 164° (SSE) 08:15:34 not established
AO-7 24 Oct 08:16:05 08:20:16 15° 307° (NW) 08:24:27 29.400 - 29.500 MHz
STRAND 1 24 Oct 08:25:08 08:29:44 34° 262° (W) 08:34:22 ?
Saudisat 1A 24 Oct 08:37:27 08:41:48 71° 300° (WNW) 08:46:12 436.775 MHz
RS-15 24 Oct 09:28:15 09:39:13 60° 248° (WSW) 09:50:40 29.354 - 29.394 USB, Beacon 29.352 USB
SO-67 24 Oct 09:32:08 09:34:20 16° 289° (WNW) 09:36:32 435.3500 MHz FM
HO-68 24 Oct 09:48:37 09:55:00 33° 98° (E) 10:01:19 435.675 MHz FM
PANSAT 24 Oct 09:49:10 09:52:33 30° 176° (S) 09:55:57 not established
ZACube-1 24 Oct 10:47:25 10:49:08 12° 92° (E) 10:50:50 437.345 MHz
UKube-1 24 Oct 10:51:53 10:56:02 41° 99° (E) 11:00:08 145.840 MHz, 145.915 MHz
MaSat-1 24 Oct 11:18:05 11:19:29 14° 255° (WSW) 11:20:50 437.345 MHz
PANSAT 24 Oct 11:29:05 11:32:18 26° 189° (S) 11:35:32 not established
FUNcube-1 24 Oct 11:30:21 11:34:22 42° 99° (E) 11:38:18 145.950 - 145.970 MHz USB
Oscar 11 24 Oct 11:33:54 11:38:10 64° 284° (WNW) 11:42:24 145.825 FM, Beacon 2401.500 USB
HO-68 24 Oct 11:36:04 11:42:40 41° 293° (WNW) 11:49:16 435.675 MHz FM
ZACube-1 24 Oct 12:21:44 12:25:45 43° 286° (WNW) 12:29:41 437.345 MHz
SO-50 24 Oct 12:28:33 12:30:25 13° 107° (ESE) 12:32:19 436.795 FM
UKube-1 24 Oct 12:29:20 12:31:50 15° 294° (WNW) 12:34:19 145.840 MHz, 145.915 MHz
KITSAT 1 24 Oct 12:37:43 12:45:33 57° 111° (ESE) 12:53:25 435.175 FM
Sapphire 24 Oct 13:03:14 13:06:37 16° 50° (NE) 13:09:59 437.095 MHz 1200 baud AX-25 AFSK
Oscar 19 24 Oct 13:05:40 13:08:13 14° 64° (ENE) 13:10:46 437.125 CW, 437.150 USB
FUNcube-1 24 Oct 13:08:16 13:10:20 13° 294° (WNW) 13:12:23 145.950 - 145.970 MHz USB
ISS 24 Oct 13:08:41 13:11:57 61° 135° (SE) 13:15:15 145.800 FM
PANSAT 24 Oct 13:10:20 13:11:54 12° 201° (SSW) 13:13:28 not established
Oscar 10/S400 24 Oct 13:21:07 13:42:37 39° 153° (SSE) 14:00:56 145.825 - 145.975 CW/USB, Beacon 145.810 USB
PCSat 24 Oct 13:25:02 13:29:34 27° 55° (NE) 13:34:05 145.825 MHz
Oscar 16 24 Oct 13:48:45 13:53:30 39° 71° (ENE) 13:58:16 437.025 USB, Beacon 2401.1428
AO-Echo 24 Oct 13:49:33 13:52:48 18° 66° (ENE) 13:56:08 ?
